"startDT [UTC]","vpos","CH4 [ppm]","stdev(CH4) [ppm]","CO2 [ppm]","stdev(CO2) [ppm]","H2O [ppm]","stdev(H2O)","p_LGR [torr]","T_LGR [C]","mt1_LGR [us]","mt2_LGR [us]","T_ECpre [C]","T_EC1 [C]","T_EC2 [C]","p_inlet [hPa]","p_in [hPa]","p_out [hPa]","T_inlet [C]","RH_inlet [%]","dwpt_inlet [C]","T_vent [C]","RH_vent [%]","dwpt_vent [C]","flow_vent [l min-1]","flow_inlet [l min-1]","dwpt_sample [C]","T_room [C]"
2013-04-12 00:00:00,0.0,1.9005,0.0009,404.99,0.32,287.5,30.3,138.04,31.77,24.66,36.42,0.04,-272.76,-272.76,-43,563,-914,24.9,5.1,-17.0,24.7,5.3,-16.7,5.73,2.27,-22.7,29.6
2013-04-12 00:01:00,0.0,1.9007,0.0008,404.99,0.36,289.5,29.0,138.04,31.77,24.66,36.41,0.04,-272.76,-272.76,-43,563,-914,24.9,5.0,-17.4,24.7,5.2,-17.1,5.73,2.37,-22.7,29.6
2013-04-12 00:02:00,0.0,1.9004,0.0009,405.02,0.31,291.0,29.5,138.04,31.76,24.66,36.42,0.04,-272.76,-272.76,-43,563,-914,24.8,5.0,-17.5,24.7,5.1,-17.2,5.73,2.26,-22.6,29.6
2013-04-12 00:03:00,0.0,1.9001,0.0007,405.11,0.34,292.6,30.9,138.05,31.76,24.66,36.41,0.04,-272.76,-272.76,-43,563,-914,24.8,5.0,-17.5,24.7,5.1,-17.2,5.73,2.31,-22.6,29.6
2013-04-12 00:04:00,0.0,1.9001,0.0008,405.05,0.34,292.5,27.7,138.05,31.75,24.66,36.41,0.04,-272.75,-272.76,-43,563,-914,24.9,4.9,-17.6,24.8,5.1,-17.2,5.73,2.36,-22.6,29.6
2013-04-12 00:05:00,0.0,1.9004,0.0007,405.08,0.31,286.2,26.3,138.05,31.75,24.66,36.41,0.04,-272.76,-272.76,-43,564,-914,24.9,4.9,-17.5,24.8,5.1,-17.3,5.73,2.24,-22.6,29.6
2013-04-12 00:06:00,0.0,1.8998,0.0008,405.01,0.32,291.0,25.9,138.05,31.74,24.66,36.42,0.04,-272.76,-272.76,-43,564,-914,24.9,4.9,-17.5,24.8,5.1,-17.2,5.73,2.35,-22.6,29.6
2013-04-12 00:07:00,0.0,1.9003,0.0008,405.10,0.30,285.8,28.9,138.05,31.74,24.66,36.41,0.04,-272.76,-272.76,-43,564,-914,24.9,4.9,-17.6,24.8,5.0,-17.4,5.73,2.33,-22.6,29.6
2013-04-12 00:08:00,0.0,1.8999,0.0007,405.10,0.34,294.0,26.6,138.05,31.73,24.66,36.41,0.04,-272.76,-272.76,-43,564,-914,24.9,4.9,-17.6,24.8,5.0,-17.3,5.73,2.25,-22.6,29.7
2013-04-12 00:09:00,0.0,1.8999,0.0007,405.00,0.35,302.1,27.9,138.05,31.73,24.66,36.42,0.04,-272.76,-272.76,-43,564,-914,24.9,4.9,-17.5,24.9,5.0,-17.2,5.73,2.36,-22.5,29.7
2013-04-12 00:10:00,0.0,1.8995,0.0008,404.94,0.36,302.3,32.9,138.05,31.72,24.66,36.42,0.04,-272.76,-272.76,-43,564,-914,24.9,4.9,-17.5,24.9,5.1,-17.2,5.73,2.31,-22.5,29.7
2013-04-12 00:11:00,0.0,1.9001,0.0009,404.98,0.32,297.3,32.3,138.05,31.71,24.66,36.42,0.04,-272.76,-272.76,-43,564,-914,25.0,4.9,-17.6,24.9,5.0,-17.2,5.73,2.26,-22.5,29.7
2013-04-12 00:12:00,0.0,1.8997,0.0009,405.05,0.36,297.2,29.3,138.05,31.71,24.66,36.42,0.04,-272.76,-272.76,-43,564,-914,25.0,4.9,-17.5,24.9,5.0,-17.3,5.73,2.38,-22.5,29.7
2013-04-12 00:13:00,0.0,1.8996,0.0009,404.94,0.35,301.5,33.4,138.05,31.70,24.66,36.42,0.04,-272.76,-272.75,-43,564,-914,25.0,4.9,-17.6,24.9,5.0,-17.3,5.73,2.28,-22.5,29.7
2013-04-12 00:14:00,0.0,1.8998,0.0009,404.96,0.35,299.7,29.9,138.05,31.70,24.66,36.42,0.04,-272.76,-272.76,-43,564,-914,25.0,4.9,-17.6,25.0,5.0,-17.3,5.73,2.28,-22.5,29.7
2013-04-12 00:15:00,0.0,1.8997,0.0008,404.92,0.31,305.6,29.9,138.05,31.69,24.66,36.42,0.04,-272.76,-272.76,-43,564,-914,25.0,4.9,-17.6,24.9,5.0,-17.3,5.73,2.38,-22.5,29.7
2013-04-12 00:16:00,0.0,1.8994,0.0009,404.94,0.32,303.0,24.4,138.05,31.69,24.66,36.42,0.04,-272.76,-272.76,-43,565,-914,25.0,4.8,-17.7,24.9,5.0,-17.4,5.73,2.26,-22.5,29.7
2013-04-12 00:17:00,0.0,1.8999,0.0009,404.98,0.37,296.5,32.1,138.05,31.68,24.66,36.41,0.04,-272.75,-272.76,-43,565,-914,25.0,4.9,-17.6,25.0,5.0,-17.3,5.73,2.29,-22.5,29.8
2013-04-12 00:18:00,0.0,1.8996,0.0009,405.06,0.31,306.3,27.5,138.05,31.67,24.66,36.42,0.04,-272.76,-272.76,-44,565,-914,25.0,5.1,-17.0,24.9,5.2,-16.7,5.73,2.38,-22.5,29.7
2013-04-12 00:19:00,0.0,1.8996,0.0008,404.97,0.35,303.2,25.5,138.05,31.67,24.66,36.42,0.04,-272.76,-272.76,-43,565,-914,25.0,5.1,-17.1,25.0,5.2,-16.7,5.73,2.25,-22.4,29.7
2013-04-12 00:20:00,0.0,1.8998,0.0009,405.00,0.33,302.3,31.4,138.05,31.66,24.66,36.42,0.04,-272.76,-272.76,-43,565,-914,25.0,5.0,-17.1,25.0,5.2,-16.8,5.73,2.32,-22.4,29.8
2013-04-12 00:21:00,0.0,1.9001,0.0008,405.09,0.30,312.4,29.4,138.05,31.66,24.66,36.42,0.04,-272.76,-272.76,-44,565,-915,25.0,5.0,-17.1,25.0,5.2,-16.9,5.73,2.36,-22.4,29.8
2013-04-12 00:22:00,0.0,1.8997,0.0008,405.07,0.31,303.3,26.7,138.05,31.65,24.66,36.41,0.04,-272.76,-272.76,-43,565,-914,25.1,5.0,-17.3,25.0,5.1,-17.0,5.73,2.25,-22.4,29.8
2013-04-12 00:23:00,0.0,1.8994,0.0010,405.01,0.29,302.7,27.8,138.05,31.65,24.66,36.42,0.04,-272.76,-272.76,-43,565,-914,25.1,4.9,-17.4,25.0,5.1,-17.1,5.73,2.33,-22.4,29.8
2013-04-12 00:24:00,0.0,1.8997,0.0008,405.02,0.33,307.4,25.9,138.05,31.64,24.66,36.42,0.04,-272.76,-272.76,-43,565,-915,25.1,4.9,-17.4,25.0,5.1,-17.1,5.73,2.35,-22.4,29.8
2013-04-12 00:25:00,0.0,1.8996,0.0011,404.91,0.35,306.8,30.3,138.05,31.64,24.66,36.41,0.04,-272.76,-272.76,-44,565,-915,25.1,5.0,-17.3,25.0,5.1,-17.0,5.73,2.25,-22.4,29.8
2013-04-12 00:26:00,0.0,1.8992,0.0008,405.00,0.32,314.1,29.7,138.05,31.63,24.66,36.42,0.04,-272.76,-272.76,-43,565,-914,25.1,5.1,-17.1,25.0,5.2,-16.7,5.73,2.34,-22.4,29.8
2013-04-12 00:27:00,0.0,1.8996,0.0008,404.94,0.29,312.9,28.5,138.05,31.63,24.66,36.42,0.04,-272.76,-272.76,-43,565,-914,25.1,5.0,-17.3,25.0,5.1,-17.0,5.73,2.35,-22.4,29.8
2013-04-12 00:28:00,0.0,1.8997,0.0009,404.82,0.41,310.6,27.8,138.06,31.62,24.66,36.42,0.04,-272.76,-272.76,-44,565,-915,25.1,5.0,-17.3,25.0,5.1,-17.0,5.73,2.25,-22.4,29.8
2013-04-12 00:29:00,0.0,1.8993,0.0009,405.01,0.30,309.4,25.7,138.06,31.62,24.66,36.41,0.04,-272.76,-272.75,-44,565,-914,25.1,4.9,-17.4,25.1,5.0,-17.1,5.73,2.34,-22.4,29.8
2013-04-12 00:30:00,0.0,1.8998,0.0010,404.92,0.32,315.7,30.0,138.05,31.61,24.66,36.42,0.04,-272.76,-272.75,-43,566,-914,25.1,5.0,-17.3,25.1,5.1,-17.1,5.73,2.34,-22.4,29.9
2013-04-12 00:31:00,0.0,1.8997,0.0010,405.04,0.32,311.4,32.8,138.05,31.61,24.66,36.42,0.04,-272.76,-272.76,-44,566,-915,25.1,5.1,-16.9,25.1,5.2,-16.7,5.73,2.24,-22.4,29.9
2013-04-12 00:32:00,0.0,1.8997,0.0010,405.01,0.29,311.8,31.0,138.06,31.60,24.66,36.41,0.04,-272.76,-272.76,-44,566,-915,25.2,5.1,-17.0,25.1,5.2,-16.7,5.73,2.35,-22.3,29.9
2013-04-12 00:33:00,0.0,1.8995,0.0011,404.97,0.33,316.9,27.1,138.06,31.60,24.66,36.42,0.04,-272.76,-272.76,-43,566,-914,25.2,4.9,-17.4,25.1,5.1,-17.0,5.73,2.33,-22.3,29.9
2013-04-12 00:34:00,0.0,1.8991,0.0008,404.85,0.35,316.4,31.9,138.06,31.60,24.66,36.42,0.04,-272.76,-272.76,-43,566,-915,25.2,4.8,-17.5,25.1,5.0,-17.3,5.73,2.25,-22.3,29.9
2013-04-12 00:35:00,0.0,1.8991,0.0008,405.00,0.33,316.5,27.1,138.06,31.59,24.66,36.42,0.04,-272.76,-272.76,-44,566,-915,25.2,4.8,-17.6,25.1,4.9,-17.3,5.73,2.36,-22.3,29.9
2013-04-12 00:36:00,0.0,1.8994,0.0009,405.00,0.33,319.0,32.5,138.06,31.58,24.66,36.42,0.04,-272.76,-272.76,-44,566,-915,25.2,4.9,-17.5,25.1,5.0,-17.2,5.73,2.32,-22.3,29.9
2013-04-12 00:37:00,0.0,1.8994,0.0010,404.91,0.36,314.2,27.8,138.06,31.58,24.66,36.42,0.04,-272.76,-272.76,-43,566,-914,25.2,4.8,-17.6,25.1,5.0,-17.3,5.73,2.25,-22.3,29.9
2013-04-12 00:38:00,0.0,1.8991,0.0010,404.90,0.35,311.9,31.6,138.06,31.57,24.66,36.41,0.04,-272.76,-272.76,-44,566,-915,25.2,4.9,-17.4,25.1,5.0,-17.2,5.73,2.35,-22.3,29.9
2013-04-12 00:39:00,0.0,1.8993,0.0010,405.02,0.29,316.5,30.4,138.06,31.57,24.66,36.42,0.04,-272.76,-272.76,-44,566,-915,25.2,5.1,-16.9,25.2,5.2,-16.6,5.73,2.33,-22.3,30.0
2013-04-12 00:40:00,0.0,1.8994,0.0010,404.91,0.34,321.4,31.4,138.06,31.56,24.66,36.42,0.04,-272.75,-272.76,-44,566,-914,25.2,5.0,-17.2,25.2,5.1,-16.9,5.73,2.25,-22.3,29.9
2013-04-12 00:41:00,0.0,1.8994,0.0008,404.89,0.36,320.3,30.1,138.06,31.56,24.66,36.42,0.04,-272.75,-272.76,-43,566,-915,25.2,4.9,-17.2,25.2,5.1,-17.0,5.73,2.34,-22.2,29.9
2013-04-12 00:42:00,0.0,1.8996,0.0009,404.97,0.37,324.1,24.1,138.06,31.55,24.66,36.42,0.04,-272.76,-272.76,-44,566,-915,25.2,4.9,-17.3,25.2,5.0,-17.1,5.73,2.34,-22.3,29.9
2013-04-12 00:43:00,0.0,1.8993,0.0008,404.93,0.38,317.8,25.2,138.06,31.55,24.66,36.42,0.04,-272.76,-272.76,-44,566,-915,25.2,4.8,-17.6,25.2,4.9,-17.3,5.73,2.24,-22.2,30.0
2013-04-12 00:44:00,0.0,1.8988,0.0009,404.96,0.31,319.8,26.4,138.06,31.54,24.66,36.42,0.04,-272.76,-272.76,-44,566,-914,25.2,4.8,-17.7,25.2,4.9,-17.4,5.73,2.34,-22.2,30.0
2013-04-12 00:45:00,0.0,1.8993,0.0011,405.02,0.33,319.7,29.0,138.06,31.54,24.66,36.41,0.04,-272.76,-272.76,-44,566,-915,25.3,4.7,-17.8,25.2,4.8,-17.5,5.73,2.34,-22.2,30.0
2013-04-12 00:46:00,0.0,1.8991,0.0009,404.91,0.37,322.9,29.2,138.06,31.53,24.66,36.42,0.04,-272.75,-272.76,-44,567,-915,25.2,4.7,-17.8,25.2,4.8,-17.5,5.73,2.25,-22.2,30.0
2013-04-12 00:47:00,0.0,1.8987,0.0010,404.92,0.37,322.3,29.4,138.06,31.52,24.66,36.42,0.04,-272.75,-272.76,-44,567,-915,25.3,4.7,-17.9,25.2,4.8,-17.7,5.73,2.33,-22.2,30.0
2013-04-12 00:48:00,0.0,1.8989,0.0007,405.00,0.33,315.8,24.3,138.06,31.52,24.66,36.42,0.04,-272.76,-272.76,-44,567,-914,25.3,4.6,-17.9,25.2,4.8,-17.7,5.73,2.35,-22.2,30.0
2013-04-12 00:49:00,0.0,1.8990,0.0010,404.92,0.31,312.7,24.5,138.06,31.52,24.66,36.43,0.04,-272.76,-272.76,-44,567,-915,25.3,4.7,-17.8,25.2,4.8,-17.6,5.73,2.25,-22.2,30.0
2013-04-12 00:50:00,0.0,1.8987,0.0009,405.02,0.34,322.8,27.6,138.06,31.51,24.66,36.41,0.04,-272.76,-272.75,-44,567,-915,25.3,4.8,-17.6,25.3,4.9,-17.3,5.73,2.33,-22.2,30.0
2013-04-12 00:51:00,0.0,1.8988,0.0009,404.93,0.31,319.7,30.3,138.06,31.51,24.66,36.43,0.04,-272.76,-272.76,-44,567,-915,25.3,4.9,-17.2,25.3,5.1,-17.0,5.73,2.35,-22.2,30.0
2013-04-12 00:52:00,0.0,1.8990,0.0009,405.01,0.28,317.6,26.9,138.06,31.50,24.66,36.42,0.04,-272.76,-272.76,-44,567,-915,25.3,4.8,-17.5,25.3,4.9,-17.3,5.73,2.25,-22.2,30.0
2013-04-12 00:53:00,0.0,1.8989,0.0008,404.82,0.31,319.0,29.1,138.06,31.50,24.66,36.42,0.04,-272.76,-272.75,-44,567,-915,25.3,4.8,-17.7,25.3,4.9,-17.4,5.73,2.33,-22.2,30.0
2013-04-12 00:54:00,0.0,1.8990,0.0010,404.94,0.33,317.3,31.0,138.06,31.49,24.66,36.42,0.04,-272.75,-272.76,-44,567,-915,25.3,4.8,-17.6,25.3,4.9,-17.3,5.73,2.35,-22.1,30.0
2013-04-12 00:55:00,0.0,1.8989,0.0009,404.96,0.34,327.8,25.3,138.06,31.49,24.66,36.42,0.04,-272.76,-272.76,-44,567,-915,25.3,4.9,-17.3,25.3,5.0,-17.0,5.73,2.25,-22.1,30.0
2013-04-12 00:56:00,0.0,1.8987,0.0010,404.86,0.32,318.3,26.6,138.06,31.48,24.66,36.42,0.04,-272.75,-272.75,-44,567,-915,25.3,4.7,-17.7,25.3,4.8,-17.4,5.73,2.32,-22.1,30.1
2013-04-12 00:57:00,0.0,1.8992,0.0008,404.85,0.32,325.3,25.1,138.06,31.48,24.66,36.43,0.04,-272.76,-272.75,-44,567,-915,25.3,4.6,-17.9,25.3,4.8,-17.6,5.73,2.36,-22.1,30.0
2013-04-12 00:58:00,0.0,1.8989,0.0010,404.93,0.33,324.1,29.3,138.06,31.48,24.66,36.42,0.04,-272.76,-272.76,-44,567,-915,25.4,4.6,-17.9,25.3,4.8,-17.6,5.73,2.25,-22.1,30.1
2013-04-12 00:59:00,0.0,1.8989,0.0009,404.89,0.39,322.5,31.2,138.06,31.47,24.66,36.42,0.04,-272.76,-272.76,-44,567,-915,25.4,4.7,-17.8,25.3,4.8,-17.5,5.73,2.32,-22.1,30.1
2013-04-12 01:00:00,0.0,1.8990,0.0009,404.80,0.32,322.6,27.2,138.06,31.47,24.66,36.43,0.04,-272.76,-272.75,-44,567,-915,25.4,4.6,-17.9,25.3,4.7,-17.6,5.73,2.37,-22.1,30.1
2013-04-12 01:01:00,0.0,1.8989,0.0007,404.86,0.36,326.5,34.4,138.06,31.46,24.66,36.42,0.04,-272.76,-272.76,-44,567,-915,25.4,4.6,-18.1,25.3,4.7,-17.8,5.73,2.26,-22.1,30.1
2013-04-12 01:02:00,0.0,1.8987,0.0009,404.94,0.35,328.4,30.3,138.06,31.46,24.66,36.42,0.04,-272.76,-272.76,-44,567,-915,25.4,4.5,-18.1,25.4,4.7,-17.8,5.73,2.30,-22.1,30.1
2013-04-12 01:03:00,0.0,1.8986,0.0008,404.93,0.34,327.0,28.4,138.06,31.45,24.66,36.42,0.04,-272.76,-272.76,-44,567,-915,25.4,4.5,-18.1,25.4,4.7,-17.8,5.73,2.37,-22.1,30.1
2013-04-12 01:04:00,0.0,1.8988,0.0010,404.89,0.34,317.0,30.1,138.06,31.45,24.66,36.42,0.29,-270.66,-272.39,-44,567,-915,25.4,4.6,-18.0,25.4,4.7,-17.8,5.42,2.30,-26.6,30.1
2013-04-12 01:05:00,0.0,1.8985,0.0008,404.85,0.32,329.7,32.5,138.06,31.44,24.67,36.42,0.04,-272.76,-272.76,-44,567,-915,25.4,4.6,-18.1,25.4,4.7,-17.8,5.73,2.29,-22.1,30.1
2013-04-12 01:06:00,0.0,1.8986,0.0009,404.96,0.36,321.9,31.0,138.06,31.44,24.66,36.41,0.04,-272.76,-272.76,-44,567,-915,25.4,4.6,-17.9,25.4,4.7,-17.7,5.73,2.37,-22.1,30.1
2013-04-12 01:07:00,0.0,1.8992,0.0010,404.84,0.31,332.3,30.1,138.06,31.44,24.66,36.42,0.04,-272.76,-272.75,-44,567,-915,25.4,4.6,-18.1,25.4,4.7,-17.8,5.73,2.27,-22.1,30.1
2013-04-12 01:08:00,0.0,1.8989,0.0009,405.02,0.34,322.8,32.7,138.06,31.43,24.66,36.42,0.04,-272.76,-272.76,-44,567,-915,25.4,4.7,-17.6,25.4,4.9,-17.3,5.73,2.28,-22.1,30.1
2013-04-12 01:09:00,0.0,1.8996,0.0009,405.03,0.36,318.2,27.9,138.06,31.43,24.66,36.42,0.04,-272.76,-272.76,-44,567,-915,25.4,4.9,-17.3,25.4,5.0,-17.0,5.73,2.37,-22.1,30.1
2013-04-12 01:10:00,0.0,1.8992,0.0009,404.95,0.27,322.0,32.4,138.06,31.43,24.66,36.42,0.04,-272.76,-272.76,-44,568,-915,25.4,4.7,-17.6,25.4,4.8,-17.4,5.73,2.29,-22.1,30.1
2013-04-12 01:11:00,0.0,1.8992,0.0008,404.84,0.33,329.3,32.4,138.06,31.42,24.66,36.42,0.04,-272.76,-272.76,-44,568,-915,25.4,4.7,-17.7,25.4,4.8,-17.4,5.73,2.27,-22.0,30.2
2013-04-12 01:12:00,0.0,1.8994,0.0009,404.90,0.40,324.7,31.6,138.06,31.42,24.66,36.42,0.04,-272.76,-272.75,-44,568,-915,25.4,4.8,-17.5,25.4,4.9,-17.2,5.73,2.37,-22.1,30.2
2013-04-12 01:13:00,0.0,1.8990,0.0009,404.95,0.31,325.1,28.9,138.06,31.42,24.66,36.42,0.04,-272.76,-272.76,-44,568,-915,25.4,4.7,-17.8,25.4,4.8,-17.5,5.73,2.30,-22.1,30.1
2013-04-12 01:14:00,0.0,1.8986,0.0008,404.98,0.30,328.8,29.8,138.06,31.41,24.66,36.41,0.04,-272.76,-272.76,-44,568,-915,25.4,4.5,-18.1,25.4,4.7,-17.8,5.73,2.25,-22.0,30.1
2013-04-12 01:15:00,0.0,1.8990,0.0009,404.92,0.34,323.7,31.3,138.06,31.41,24.66,36.42,0.04,-272.76,-272.76,-44,568,-915,25.5,4.5,-18.1,25.4,4.6,-17.8,5.73,2.35,-22.0,30.2
2013-04-12 01:16:00,0.0,1.8986,0.0009,404.93,0.32,332.6,28.1,138.06,31.41,24.66,36.42,0.04,-272.75,-272.76,-44,568,-915,25.5,4.5,-18.1,25.4,4.6,-17.8,5.73,2.34,-22.1,30.2
2013-04-12 01:17:00,0.0,1.8992,0.0007,405.01,0.30,332.9,30.8,138.06,31.40,24.66,36.42,0.04,-272.75,-272.76,-44,568,-915,25.5,4.7,-17.5,25.4,4.8,-17.4,5.73,2.24,-22.1,30.2
2013-04-12 01:18:00,0.0,1.9007,0.0011,405.11,0.37,335.8,30.4,138.06,31.40,24.66,36.42,0.04,-272.76,-272.76,-44,568,-915,25.5,5.7,-15.3,25.5,5.9,-15.0,5.73,2.33,-22.1,30.2
2013-04-12 01:19:00,0.0,1.9006,0.0008,405.12,0.36,322.9,25.2,138.06,31.40,24.66,36.42,0.04,-272.76,-272.75,-44,568,-915,25.5,5.6,-15.6,25.4,5.8,-15.3,5.73,2.36,-22.0,30.1
2013-04-12 01:20:00,0.0,1.9000,0.0008,405.04,0.33,326.1,29.3,138.06,31.40,24.66,36.43,0.04,-272.75,-272.76,-44,568,-915,25.5,5.2,-16.4,25.4,5.4,-16.0,5.73,2.26,-22.1,30.1
2013-04-12 01:21:00,0.0,1.9002,0.0009,405.16,0.30,325.3,27.0,138.06,31.39,24.66,36.42,0.04,-272.76,-272.76,-44,568,-915,25.5,5.3,-16.1,25.5,5.5,-15.8,5.73,2.29,-22.1,30.2
2013-04-12 01:22:00,0.0,1.9001,0.0009,405.20,0.35,322.3,30.9,138.06,31.39,24.66,36.41,0.04,-272.76,-272.76,-44,568,-915,25.5,5.3,-16.1,25.5,5.5,-15.9,5.73,2.37,-22.1,30.1
2013-04-12 01:23:00,0.0,1.9003,0.0008,405.15,0.36,327.4,29.5,138.06,31.39,24.66,36.42,0.04,-272.76,-272.76,-44,568,-915,25.5,5.4,-16.0,25.5,5.5,-15.7,5.73,2.29,-22.1,30.2
2013-04-12 01:24:00,0.0,1.9003,0.0008,405.19,0.31,331.1,29.7,138.06,31.39,24.66,36.42,0.04,-272.76,-272.75,-44,568,-915,25.5,5.5,-15.7,25.5,5.7,-15.4,5.73,2.26,-22.1,30.1
2013-04-12 01:25:00,0.0,1.9005,0.0010,405.10,0.33,325.3,27.7,138.06,31.38,24.66,36.43,0.04,-272.76,-272.76,-44,568,-915,25.5,5.6,-15.6,25.5,5.8,-15.3,5.73,2.35,-22.1,30.1
2013-04-12 01:26:00,0.0,1.9008,0.0008,405.50,0.43,326.8,34.2,138.06,31.38,24.66,36.42,0.04,-272.76,-272.76,-44,568,-915,25.5,5.3,-16.2,25.5,5.5,-15.8,5.73,2.34,-22.1,30.1
2013-04-12 01:27:00,0.0,1.9006,0.0007,405.39,0.34,323.0,27.3,138.06,31.38,24.66,36.42,0.04,-272.75,-272.76,-44,568,-915,25.5,4.7,-17.5,25.5,4.9,-17.2,5.73,2.25,-22.1,30.1
2013-04-12 01:28:00,0.0,1.9003,0.0008,405.37,0.33,319.7,29.8,138.06,31.37,24.66,36.42,0.04,-272.75,-272.75,-44,568,-915,25.5,4.6,-17.8,25.5,4.8,-17.5,5.73,2.30,-22.1,30.1
2013-04-12 01:29:00,0.0,1.9003,0.0011,405.35,0.36,320.1,29.9,138.06,31.37,24.66,36.42,0.04,-272.76,-272.76,-44,568,-915,25.5,4.6,-17.8,25.5,4.8,-17.5,5.73,2.36,-22.1,30.2
2013-04-12 01:30:00,0.0,1.9008,0.0012,405.36,0.41,326.8,27.8,138.06,31.36,24.66,36.42,0.04,-272.76,-272.76,-44,568,-915,25.5,4.6,-17.8,25.5,4.8,-17.5,5.73,2.29,-22.1,30.1
2013-04-12 01:31:00,0.0,1.9007,0.0009,405.37,0.35,321.7,31.8,138.06,31.36,24.66,36.42,0.04,-272.76,-272.76,-44,568,-915,25.5,4.7,-17.6,25.5,4.9,-17.3,5.73,2.26,-22.1,30.2
2013-04-12 01:32:00,0.0,1.9003,0.0008,405.19,0.31,325.6,29.8,138.06,31.35,24.66,36.42,0.04,-272.76,-272.76,-44,568,-915,25.5,4.6,-17.9,25.4,4.7,-17.6,5.73,2.35,-22.1,30.2
2013-04-12 01:33:00,0.0,1.8999,0.0011,405.18,0.30,328.1,29.9,138.06,31.35,24.66,36.42,0.04,-272.76,-272.76,-44,568,-915,25.5,4.5,-18.1,25.5,4.6,-17.8,5.73,2.35,-22.1,30.2
2013-04-12 01:34:00,0.0,1.9002,0.0009,405.24,0.34,324.5,31.0,138.06,31.35,24.66,36.42,0.04,-272.76,-272.76,-44,568,-915,25.5,4.7,-17.7,25.5,4.8,-17.4,5.73,2.26,-22.1,30.2
2013-04-12 01:35:00,0.0,1.8996,0.0008,405.22,0.31,330.4,30.5,138.06,31.35,24.66,36.42,0.04,-272.76,-272.76,-44,568,-915,25.5,4.6,-17.9,25.5,4.7,-17.6,5.73,2.29,-22.1,30.2
2013-04-12 01:36:00,0.0,1.8993,0.0009,405.03,0.31,323.8,27.8,138.06,31.35,24.66,36.43,0.04,-272.76,-272.76,-44,568,-915,25.5,4.5,-18.1,25.5,4.6,-17.8,5.73,2.36,-22.1,30.2
2013-04-12 01:37:00,0.0,1.9001,0.0009,405.27,0.32,319.4,29.6,138.06,31.34,24.66,36.42,0.04,-272.76,-272.76,-44,568,-915,25.5,4.6,-17.9,25.5,4.7,-17.6,5.73,2.32,-22.1,30.2
2013-04-12 01:38:00,0.0,1.8997,0.0008,405.11,0.35,327.1,30.4,138.06,31.34,24.66,36.42,0.04,-272.75,-272.76,-44,568,-915,25.6,4.5,-18.0,25.5,4.6,-17.8,5.73,2.25,-22.1,30.2
2013-04-12 01:39:00,0.0,1.8999,0.0009,405.15,0.32,325.7,29.3,138.06,31.34,24.66,36.42,0.04,-272.76,-272.76,-44,568,-915,25.6,4.5,-18.0,25.5,4.7,-17.8,5.73,2.31,-22.1,30.2
2013-04-12 01:40:00,0.0,1.8997,0.0008,405.13,0.31,314.7,31.0,138.06,31.34,24.66,36.42,0.04,-272.76,-272.76,-44,568,-915,25.6,4.6,-17.8,25.5,4.7,-17.5,5.73,2.37,-22.1,30.1
2013-04-12 01:41:00,0.0,1.8992,0.0009,405.09,0.32,323.3,27.7,138.06,31.34,24.66,36.42,0.04,-272.76,-272.76,-44,568,-915,25.6,4.5,-18.1,25.5,4.6,-17.9,5.73,2.30,-22.1,30.2
2013-04-12 01:42:00,0.0,1.8993,0.0009,405.08,0.35,328.9,28.9,138.06,31.34,24.66,36.42,0.04,-272.76,-272.76,-44,568,-915,25.5,4.5,-18.1,25.5,4.6,-17.8,5.73,2.25,-22.1,30.2
2013-04-12 01:43:00,0.0,1.8999,0.0008,405.16,0.26,319.3,31.6,138.06,31.33,24.66,36.42,0.04,-272.76,-272.76,-44,568,-915,25.6,4.6,-17.9,25.5,4.7,-17.6,5.73,2.32,-22.1,30.2
2013-04-12 01:44:00,0.0,1.9000,0.0010,405.18,0.36,314.6,28.1,138.06,31.33,24.66,36.42,0.04,-272.75,-272.76,-44,568,-915,25.6,4.8,-17.4,25.5,4.9,-17.2,5.73,2.36,-22.1,30.2
2013-04-12 01:45:00,0.0,1.9007,0.0010,405.27,0.34,319.9,31.7,138.06,31.33,24.66,36.42,0.04,-272.76,-272.76,-44,568,-915,25.6,4.9,-17.0,25.5,5.1,-16.8,5.73,2.29,-22.1,30.1
2013-04-12 01:46:00,0.0,1.9001,0.0008,405.30,0.37,323.8,30.3,138.06,31.33,24.66,36.42,0.04,-272.76,-272.76,-44,568,-915,25.6,4.7,-17.6,25.5,4.8,-17.4,5.73,2.26,-22.1,30.1
2013-04-12 01:47:00,0.0,1.9000,0.0008,405.11,0.39,323.3,31.5,138.06,31.32,24.66,36.43,0.04,-272.76,-272.76,-44,568,-915,25.6,4.7,-17.6,25.5,4.8,-17.3,5.73,2.31,-22.1,30.2
2013-04-12 01:48:00,0.0,1.9009,0.0010,405.31,0.41,320.3,32.1,138.06,31.32,24.66,36.42,0.04,-272.75,-272.76,-44,568,-915,25.6,4.9,-17.1,25.5,5.0,-16.8,5.73,2.37,-22.1,30.2
2013-04-12 01:49:00,0.0,1.9013,0.0010,405.28,0.35,322.4,29.0,138.06,31.32,24.66,36.42,0.04,-272.76,-272.76,-44,568,-915,25.6,5.1,-16.6,25.5,5.2,-16.3,5.73,2.31,-22.1,30.2
2013-04-12 01:50:00,0.0,1.9010,0.0011,405.37,0.32,319.0,31.5,138.06,31.32,24.66,36.42,0.04,-272.75,-272.76,-44,569,-915,25.6,5.0,-17.0,25.5,5.1,-16.6,5.73,2.25,-22.1,30.1
2013-04-12 01:51:00,0.0,1.9010,0.0008,405.28,0.39,315.6,27.6,138.06,31.32,24.66,36.42,0.04,-272.75,-272.76,-44,569,-915,25.6,4.6,-17.8,25.5,4.7,-17.5,5.73,2.31,-22.1,30.2
2013-04-12 01:52:00,0.0,1.9002,0.0008,405.10,0.37,319.5,32.0,138.06,31.31,24.66,36.42,0.04,-272.76,-272.76,-44,569,-915,25.6,4.6,-17.9,25.5,4.7,-17.7,5.73,2.36,-22.1,30.2
2013-04-12 01:53:00,0.0,1.9010,0.0009,404.99,0.32,316.6,30.2,138.06,31.31,24.66,36.43,0.04,-272.76,-272.76,-44,569,-915,25.6,4.6,-17.8,25.5,4.7,-17.6,5.73,2.31,-22.1,30.2
2013-04-12 01:54:00,0.0,1.9001,0.0010,405.04,0.38,320.3,28.0,138.06,31.31,24.66,36.43,0.04,-272.76,-272.76,-44,568,-915,25.6,4.5,-18.2,25.5,4.6,-17.9,5.73,2.25,-22.1,30.2
2013-04-12 01:55:00,0.0,1.9009,0.0012,405.09,0.28,325.9,29.3,138.06,31.31,24.66,36.43,0.04,-272.76,-272.76,-44,569,-915,25.6,4.6,-17.8,25.5,4.7,-17.6,5.73,2.30,-22.1,30.2
2013-04-12 01:56:00,0.0,1.9000,0.0010,405.01,0.35,318.2,34.6,138.06,31.31,24.66,36.43,0.04,-272.76,-272.76,-44,569,-915,25.6,4.5,-18.0,25.5,4.6,-17.8,5.73,2.36,-22.1,30.1
2013-04-12 01:57:00,0.0,1.9013,0.0011,405.17,0.32,323.1,26.8,138.06,31.30,24.66,36.43,0.04,-272.76,-272.76,-44,569,-915,25.6,4.7,-17.6,25.5,4.9,-17.2,5.73,2.33,-22.1,30.2
2013-04-12 01:58:00,0.0,1.9006,0.0009,405.09,0.33,317.3,28.2,138.06,31.30,24.66,36.42,0.04,-272.76,-272.76,-44,569,-915,25.6,4.5,-18.0,25.5,4.6,-17.8,5.73,2.27,-22.1,30.2
2013-04-12 01:59:00,0.0,1.9015,0.0013,405.08,0.39,318.3,30.5,138.06,31.30,24.66,36.43,0.04,-272.75,-272.76,-44,569,-915,25.6,4.8,-17.3,25.5,4.9,-17.0,5.73,2.27,-22.1,30.1
2013-04-12 02:00:00,0.0,1.9001,0.0009,405.05,0.34,320.5,31.8,138.06,31.29,24.66,36.43,0.04,-272.76,-272.76,-44,569,-915,25.6,4.6,-17.9,25.5,4.7,-17.7,5.73,2.34,-22.1,30.2
2013-04-12 02:01:00,0.0,1.9013,0.0008,405.14,0.35,327.3,23.6,138.06,31.29,24.66,36.42,0.04,-272.76,-272.76,-44,569,-915,25.6,4.9,-17.1,25.5,5.0,-16.9,5.73,2.35,-22.1,30.1
2013-04-12 02:02:00,0.0,1.9005,0.0009,405.00,0.31,324.2,32.4,138.06,31.29,24.66,36.43,0.04,-272.76,-272.76,-44,569,-915,25.6,4.7,-17.6,25.5,4.8,-17.3,5.73,2.29,-22.1,30.2
2013-04-12 02:03:00,0.0,1.9003,0.0009,405.00,0.35,315.6,33.2,138.06,31.29,24.66,36.43,0.04,-272.76,-272.76,-44,569,-915,25.6,4.6,-17.9,25.5,4.7,-17.6,5.73,2.26,-22.1,30.2
2013-04-12 02:04:00,0.0,1.9005,0.0009,405.02,0.31,316.1,26.2,138.06,31.29,24.66,36.42,0.04,-272.75,-272.76,-44,569,-915,25.6,4.5,-18.0,25.5,4.6,-17.8,5.73,2.31,-22.1,30.2
2013-04-12 02:05:00,0.0,1.9003,0.0011,405.04,0.34,323.3,29.5,138.06,31.28,24.66,36.42,0.04,-272.76,-272.76,-44,569,-915,25.6,4.5,-18.0,25.5,4.7,-17.7,5.73,2.36,-22.1,30.2
2013-04-12 02:06:00,0.0,1.9000,0.0008,404.92,0.35,319.5,30.0,138.05,31.28,24.66,36.43,0.04,-272.76,-272.76,-44,569,-915,25.6,4.5,-18.2,25.5,4.6,-17.9,5.73,2.32,-22.1,30.2
2013-04-12 02:07:00,0.0,1.9000,0.0010,405.04,0.35,321.0,28.7,138.06,31.28,24.66,36.43,0.04,-272.76,-272.76,-44,569,-915,25.6,4.6,-17.9,25.5,4.7,-17.6,5.73,2.26,-22.1,30.2
2013-04-12 02:08:00,0.0,1.9003,0.0011,405.07,0.32,323.2,34.3,138.06,31.28,24.66,36.43,0.04,-272.75,-272.76,-44,569,-915,25.6,4.5,-18.1,25.5,4.6,-17.8,5.73,2.28,-22.1,30.2
2013-04-12 02:09:00,0.0,1.9000,0.0010,405.03,0.38,321.4,29.1,138.06,31.27,24.66,36.43,0.04,-272.75,-272.76,-44,569,-915,25.6,4.5,-18.1,25.5,4.6,-17.9,5.73,2.35,-22.1,30.2
2013-04-12 02:10:00,0.0,1.8996,0.0009,405.06,0.32,321.3,27.9,138.06,31.27,24.66,36.42,0.04,-272.75,-272.76,-44,569,-915,25.6,4.4,-18.2,25.5,4.6,-18.0,5.73,2.35,-22.1,30.2
2013-04-12 02:11:00,0.0,1.9001,0.0012,405.12,0.33,323.6,25.8,138.06,31.27,24.66,36.42,0.04,-272.76,-272.76,-44,569,-915,25.6,4.4,-18.2,25.5,4.6,-18.0,5.73,2.30,-22.1,30.2
2013-04-12 02:12:00,0.0,1.8996,0.0008,405.01,0.35,320.0,29.2,138.05,31.27,24.66,36.43,0.04,-272.76,-272.76,-44,569,-915,25.6,4.4,-18.3,25.6,4.5,-18.0,5.73,2.25,-22.1,30.2
2013-04-12 02:13:00,0.0,1.9003,0.0008,404.99,0.33,318.0,31.3,138.06,31.27,24.66,36.43,0.04,-272.76,-272.76,-44,569,-915,25.6,4.5,-18.1,25.6,4.6,-17.9,5.73,2.30,-22.1,30.2
2013-04-12 02:14:00,0.0,1.8997,0.0008,405.06,0.39,328.2,29.8,138.06,31.27,24.66,36.42,0.04,-272.76,-272.76,-44,569,-915,25.6,4.4,-18.3,25.6,4.5,-18.0,5.73,2.35,-22.1,30.2
2013-04-12 02:15:00,0.0,1.9000,0.0010,405.07,0.37,316.9,30.2,138.05,31.27,24.66,36.42,0.04,-272.76,-272.76,-44,569,-915,25.6,4.5,-18.2,25.6,4.6,-17.9,5.73,2.33,-22.1,30.2
2013-04-12 02:16:00,0.0,1.9004,0.0009,405.18,0.33,318.9,30.0,138.06,31.27,24.66,36.42,0.04,-272.76,-272.76,-44,569,-915,25.6,4.4,-18.2,25.6,4.6,-17.9,5.73,2.27,-22.1,30.2